Torna al catalogo

FENGYUN 1C DEB

AttivoSSO
NORAD 43214·DEBRIS·🇨🇳 China

Lanciato May 10, 1999 da Taiyuan Satellite Launch Center

Loading…

Prossimi Passaggi (prossime 24 ore)

TLE

AggiornatoSource: Space-Track

Epoca: Sep 14, 2026, 10:45 UTC

1 43214U 99025EYN 26257.44827479  .00001933  00000-0  82028-3 0  9995
2 43214  98.7179 325.5643 0055272 147.2579 213.2046 14.25687624443308

Traccia FENGYUN 1C DEB in tempo reale con AllMySat

Download on the App Store